Location: Sevilla
(37.3933°N, 5.9839°W)
Time: 13:11:17
(UTC+02:00)

S-56A Canister/Altair - Pass Details

Date: 01 July 2024
Orbit: 638 x 2488 km, 38.9° (Epoch: 14 July)

Event Time Altitude Azimuth Distance (km) Brightness Sun altitude
Rises 22:22:58 0° 270° (W) 3,567 11.9 -6.5°
Reaches altitude 10° 22:25:09 10° 271° (W) 2,798 11.3 -6.9°
Maximum altitude 22:32:03 81° 359° (N) 1,357 8.8 -8.0°
Drops below altitude 10° 22:42:47 10° 87° (E) 4,226 10.9 -9.7°
Sets 22:46:50 0° 89° (E) 5,491 11.4 -10.3°
